Home   Weather   Quito   Past weeks

Flag for Ecuador Past Weather in Quito, Ecuador — Yesterday and Last 2 Weeks

Now
45 °F

Clear.


Feels Like: 43 °F
Forecast: 46 / 72 °F
Wind: 3 mph from North

Location: Latacunga Airport

Current Time: Dec 10, 2016 at 9:36:22 pm

Latest Report: Dec 10, 2016 at 9:00 pm


Visibility: 10 mi

Pressure: 30.42 "Hg (21.55 "Hg at 2826m altitude)

Humidity: 71%

Dew Point: 36 °F

Location of QuitoLocation

Past Weather in Quito — Graph

°F

Quito Temperature Yesterday

Maximum temperature yesterday: 70 °F (at 1:00 pm)
Minimum temperature yesterday: 37 °F (at 6:00 am)
Average temperature yesterday: 53 °F

High & Low Weather Summary for the Past Weeks

 TemperatureHumidityPressure
High73 °F (Dec 10, 1:00 pm)100% (Nov 25, 8:00 pm)30.48 "Hg (Nov 25, 8:00 pm)
Low37 °F (Dec 9, 6:00 am)21% (Dec 10, 5:00 pm)30.24 "Hg (Nov 28, 3:00 pm)
Average56 °F87%30.38 "Hg
* Reported Nov 25 8:00 pm — Dec 10 8:00 pm, Quito, Weather by CustomWeather, © 2016

Note: Actual official high and low records may vary slightly from our data, if they occured in-between our weather recording intervals... More about our weather records

Advertising

Quito Weather History for the Previous 24 Hours

Scroll right to see more
 ConditionsComfort  
Time TempWeatherWind HumidityBarometerVisibility
8:00 pm
Sat, Dec 10
46 °FClear.3 mph53%30.36 "Hg10 mi
7:00 pm52 °FPassing clouds.5 mph44%30.33 "HgN/A
6:00 pm61 °FPassing clouds.7 mph22%30.30 "HgN/A
5:00 pm66 °FPassing clouds.12 mph21%30.27 "HgN/A
4:00 pm70 °FPassing clouds.12 mph25%30.27 "HgN/A
3:00 pm72 °FPassing clouds.10 mph23%30.27 "HgN/A
2:00 pm73 °FScattered clouds.3 mph23%30.30 "HgN/A
1:00 pm73 °FScattered clouds.5 mph23%30.33 "HgN/A
12:00 pm70 °FScattered clouds.3 mph29%30.36 "HgN/A
11:00 am66 °FScattered clouds.7 mph40%30.42 "HgN/A
10:00 am63 °FScattered clouds.5 mph52%30.45 "HgN/A
9:00 am61 °FScattered clouds.3 mph59%30.45 "HgN/A
8:00 am54 °FScattered clouds.2 mph88%30.45 "HgN/A
7:00 am46 °FScattered clouds.6 mph100%30.42 "HgN/A
6:00 am48 °FPassing clouds.6 mph100%30.39 "HgN/A
5:00 am48 °FPassing clouds.1 mph100%30.36 "HgN/A
4:00 am48 °FPassing clouds.2 mph100%30.36 "HgN/A
3:00 am46 °FPassing clouds.1 mph100%30.36 "HgN/A
2:00 am48 °FPassing clouds.3 mph100%30.39 "HgN/A
1:00 am48 °FPassing clouds.1 mph100%30.39 "HgN/A
12:00 am54 °FPartly cloudy.8 mph82%30.42 "HgN/A
11:00 pm
Fri, Dec 9
55 °FPartly cloudy.7 mph77%30.42 "HgN/A
10:00 pm55 °FPartly cloudy.8 mph77%30.42 "HgN/A
9:00 pm55 °FPartly cloudy.8 mph77%30.42 "HgN/A
Weather by CustomWeather, © 2016

See weather overviewHow to use our weather pages